Terminal Aerodrome Forecast
Issued by NWS Cleveland, OH

Home | Current Version | Previous Version | Graphics & Text | Print | Product List | Glossary On
Versions: 1 2 3 4 5 6 7 8 9 10 11 12 13 14 15 16 17 18 19
000
FTUS41 KCLE 251100
TAFCAK
TAF
KCAK 251137Z 2512/2612 18008KT P6SM FEW120 BKN200
     FM251500 21015G22KT P6SM VCSH BKN070 OVC150
      TEMPO 2520/2522 4SM -TSRA BKN045CB OVC080
     FM252200 22015G25KT P6SM SCT050 OVC120
     FM260100 21010KT P6SM SCT050 BKN200=

USA.gov is the U.S. government's official web portal to all federal, state and local government web resources and services.